Dewpoint
0 -2 2 3 3 3 4 5 6 5 5 4 4 4 4 3 3 3 0 2 5 6 5 4 2 2 -0 -3 -2 -2 -3 -2 1 -0 -2 -3 -2 -2 -2 -0 -2 0 1 -1
1 -0 2 4 3 3 3 4 4 3 4 4 3 2 2 2 1 1 2 2 3 3 4 6 3 1 -2 -3 -2 -1 -2 0 1 0 -2 -3 -2 -2 -1 -2 -2 -0 0 -1
1 1 -0 3 3 2 4 3 2 2 2 2 3 3 3 3 2 1 1 1 1 3 4 2 4 3 -0 -2 -2 -1 -1 1 1 1 -0 -1 -0 -2 -3 -1 1 1 0 -1
-0 1 1 1 3 3 4 3 3 1 1 2 2 2 3 4 4 1 2 3 2 2 5 4 5 4 2 -1 -1 0 -0 2 1 1 -0 -0 0 0 -0 -1 -1 1 -1 -2
-0 -0 1 0 2 3 4 3 3 2 2 2 2 2 2 1 2 2 3 3 3 2 4 4 3 3 2 1 0 1 1 2 1 2 1 1 2 0 -0 -0 -1 -1 -1 -1
-0 -1 1 0 1 3 3 3 2 -0 1 2 2 1 1 1 -0 0 0 1 2 3 2 2 2 2 3 2 1 3 3 3 2 2 -0 -0 0 -1 -1 -0 -1 -1 -0 -3
-1 0 -1 -1 1 2 2 3 2 1 1 1 1 0 0 1 1 1 1 1 2 1 0 1 2 1 1 1 2 2 3 3 3 2 -0 1 -5 -6 -3 -1 -1 -2 -3 -5
-3 -0 -0 -1 -1 2 2 3 3 2 2 1 1 1 0 1 1 1 1 1 1 1 1 2 2 1 1 1 1 1 1 3 2 3 1 -2 -3 -6 -6 -5 -5 -9 -8 -6
-2 -1 -0 -0 -0 -1 1 2 2 2 2 2 1 0 0 1 0 1 1 1 1 2 1 2 2 2 -1 -1 -2 -2 -0 1 2 2 3 1 -6 -9 -10 -8 -4 -11 -9 -11
-3 -1 1 1 1 1 0 0 1 1 2 1 0 0 0 -0 0 1 -0 -1 -0 0 1 2 2 1 -3 -2 -1 -1 1 1 1 1 2 1 -10 -12 -9 -4 -7 -12 -13 -12
-6 -2 -0 0 -0 -0 -0 -2 -1 1 1 1 2 1 1 1 1 1 -1 -1 -1 -1 1 1 1 1 -2 -3 -6 -3 -1 -0 -0 0 1 1 -12 -10 -6 -10 -13 -14 -14 -14
-7 -7 -2 -1 -1 -3 -1 -1 -3 -1 1 1 0 1 1 1 0 -0 -0 -1 -1 -2 -1 -1 -1 1 -2 -3 -2 -7 -4 -5 -3 -3 -3 -15 -14 -13 -13 -13 -14 -14 -14 -15
-7 -7 -5 -4 -3 -4 -2 -1 -0 1 1 0 0 -0 1 1 1 1 0 -1 -2 -1 -2 -1 -2 0 -3 -3 -3 -6 -8 -9 -6 -6 -12 -16 -16 -15 -14 -14 -14 -15 -16 -16
-6 -4 -6 -3 -3 -3 -3 -1 0 0 0 0 -2 -2 -2 -1 -0 -0 0 -1 -2 -1 -1 -2 -3 -1 -4 -6 -7 -8 -9 -10 -8 -7 -13 -17 -17 -16 -16 -15 -16 -16 -16 -17
-6 -6 -7 -4 -3 -3 -1 -1 0 -0 -0 -2 -5 -4 -4 -3 -2 -2 -2 -1 -2 -3 -3 -3 -3 -3 -8 -9 -10 -9 -12 -11 -9 -9 -11 -11 -14 -16 -17 -17 -16 -16 -15 -15
-5 -7 -8 -3 -3 -1 -0 -1 -0 -0 0 -1 -5 -6 -5 -5 -5 -4 -3 -3 -3 -3 -3 -3 -3 -6 -8 -4 -5 -9 -10 -12 -13 -14 -14 -15 -16 -15 -16 -16 -15 -14 -14 -13
-3 -4 -7 -4 -3 -1 -0 -1 -1 -0 -1 -2 -6 -6 -6 -5 -5 -5 -5 -5 -4 -4 -4 -4 -4 -7 -6 -4 -5 -12 -13 -13 -13 -13 -14 -14 -15 -15 -14 -14 -14 -13 -12 -12
-2 -3 -2 -1 -1 -1 -2 -3 -3 -3 -2 -4 -5 -6 -7 -6 -6 -6 -6 -6 -5 -5 -5 -6 -9 -9 -8 -7 -8 -10 -14 -14 -13 -13 -13 -12 -12 -12 -12 -15 -16 -15 -15 -15
-1 -2 -1 -2 -3 -5 -5 -5 -4 -4 -4 -5 -5 -7 -6 -6 -6 -6 -6 -6 -6 -6 -8 -7 -9 -8 -8 -10 -10 -12 -12 -11 -10 -11 -12 -13 -14 -14 -14 -14 -15 -15 -16 -16
-3 -3 -3 -5 -6 -5 -4 -5 -5 -7 -9 -5 -6 -8 -7 -7 -6 -6 -7 -6 -7 -9 -9 -9 -8 -8 -11 -12 -12 -12 -11 -12 -11 -12 -15 -15 -17 -17 -18 -19 -19 -17 -17 -16
-4 -6 -7 -6 -11 -14 -13 -10 -10 -9 -8 -8 -8 -9 -8 -8 -7 -7 -9 -8 -9 -12 -10 -9 -9 -8 -9 -10 -11 -11 -11 -11 -13 -16 -17 -17 -18 -18 -18 -19 -18 -17 -15 -15
-12 -7 -10 -15 -17 -18 -13 -13 -11 -9 -7 -8 -8 -8 -10 -10 -10 -9 -9 -9 -11 -11 -10 -12 -10 -10 -8 -11 -11 -11 -13 -16 -16 -16 -16 -16 -16 -17 -17 -17 -17 -15 -14 -14
-16 -17 -18 -18 -17 -15 -19 -14 -13 -9 -9 -8 -8 -8 -11 -11 -10 -9 -10 -13 -12 -11 -14 -10 -11 -9 -9 -10 -12 -14 -15 -15 -15 -15 -15 -15 -16 -16 -16 -16 -15 -14 -14 -14
-21 -19 -17 -16 -14 -13 -10 -10 -10 -8 -9 -9 -10 -8 -9 -10 -12 -12 -13 -11 -12 -15 -14 -13 -15 -10 -10 -12 -13 -13 -14 -14 -14 -14 -15 -15 -16 -16 -16 -15 -14 -13 -13 -13
-17 -15 -12 -15 -12 -11 -10 -10 -8 -8 -8 -11 -10 -11 -10 -14 -15 -16 -14 -15 -16 -15 -14 -13 -10 -10 -11 -11 -11 -12 -13 -13 -13 -14 -15 -16 -16 -15 -14 -14 -13 -13 -13 -13
-13 -10 -13 -10 -12 -10 -10 -10 -9 -9 -10 -10 -12 -16 -16 -14 -15 -15 -15 -16 -15 -14 -13 -10 -10 -10 -10 -11 -11 -11 -12 -13 -15 -16 -15 -15 -14 -14 -14 -13 -13 -13 -13 -12
-11 -10 -9 -9 -10 -10 -10 -9 -10 -8 -8 -14 -15 -17 -16 -17 -16 -14 -14 -14 -14 -10 -11 -11 -11 -12 -12 -13 -13 -14 -14 -15 -15 -14 -14 -14 -14 -14 -13 -13 -14 -13 -12 -11
Wind_Speed
18 18 18 17 13 13 12 9 3 7 17 5 3 3 4 3 5 8 4 1 5 6 6 2 4 5 7 8 6 4 5 3 4 10 6 5 5 7 6 4 5 3 2 7
17 14 18 17 15 17 15 6 7 11 20 4 3 3 3 3 3 4 4 6 7 6 4 5 6 4 4 6 4 3 1 2 3 7 4 3 3 4 4 2 2 14 3 6
18 17 17 20 19 17 16 6 2 6 15 4 3 4 4 4 9 4 7 2 2 4 6 6 4 4 5 10 9 5 6 3 7 7 3 2 4 5 5 6 5 12 16 17
22 20 18 20 22 21 21 10 5 10 5 7 8 5 2 4 5 7 5 3 9 6 5 4 5 6 6 6 9 7 6 6 7 15 12 7 16 13 10 13 12 11 13 12
20 22 20 20 26 25 30 11 6 9 5 11 13 10 6 18 10 7 5 7 8 9 8 7 3 2 2 5 3 8 5 4 4 11 8 10 19 16 17 19 20 19 17 19
24 25 23 18 26 28 23 23 12 11 9 7 6 6 10 7 10 10 20 13 9 9 14 22 19 10 9 6 3 8 4 4 4 7 4 5 10 11 19 16 15 16 17 17
29 26 26 26 27 33 33 23 20 10 5 8 9 6 15 14 14 11 5 13 7 4 7 8 8 8 10 12 12 10 3 4 3 3 1 6 4 2 4 10 10 10 9 3
33 29 28 26 28 30 31 30 30 8 4 13 10 13 9 13 16 16 18 18 14 10 5 2 3 1 2 7 15 15 13 3 3 3 4 8 10 3 2 4 6 2 4 4
31 29 30 29 28 28 31 32 24 23 6 9 19 13 16 8 5 1 8 10 10 12 4 4 5 6 5 4 2 1 10 10 5 2 4 5 1 1 5 3 4 3 5 5
29 28 27 30 28 26 29 26 24 24 8 18 14 10 12 10 9 2 4 5 8 16 4 5 4 4 4 6 6 5 4 5 14 12 8 6 1 1 4 5 3 4 10 5
28 28 27 27 25 24 25 32 41 27 15 24 16 22 16 9 11 5 8 5 4 3 3 4 4 5 5 4 5 7 9 7 4 4 5 8 3 2 4 4 8 11 10 10
29 30 28 28 23 21 21 30 33 38 28 12 21 27 28 26 24 19 17 4 7 10 3 3 2 3 1 3 4 2 4 6 5 8 5 4 5 6 7 9 11 10 10 8
31 31 31 28 28 25 24 30 32 29 25 24 23 19 22 22 26 27 12 8 9 8 7 4 2 3 3 4 5 4 3 3 3 1 2 6 9 9 10 11 14 11 10 7
33 32 31 28 27 26 25 34 34 33 11 6 10 14 14 21 24 24 26 18 17 13 11 4 2 2 6 3 2 4 5 6 5 3 2 6 10 12 13 14 14 12 9 6
34 33 33 30 26 24 25 32 37 37 28 3 3 9 11 13 17 17 15 13 17 10 5 2 3 2 2 1 0 4 6 5 4 4 9 5 4 17 15 15 13 8 7 8
36 34 31 29 26 25 25 18 29 32 33 14 2 2 10 9 9 12 8 12 11 6 5 3 4 4 4 2 3 5 13 10 11 6 7 8 11 10 13 13 9 8 9 10
39 35 31 27 24 28 27 10 12 36 39 11 5 3 7 14 16 11 11 9 4 4 3 3 4 4 5 2 3 5 9 9 7 6 9 7 7 6 8 7 8 9 11 14
30 28 26 26 39 34 19 19 30 29 24 7 3 3 5 10 5 4 5 4 5 4 3 3 3 4 4 4 8 9 11 11 8 7 6 7 6 5 5 5 7 9 11 13
32 35 36 37 20 9 17 21 20 12 4 6 3 5 3 9 4 5 3 4 1 3 1 3 5 2 4 6 8 13 13 10 12 9 4 4 3 4 4 6 9 12 16 18
47 40 14 7 14 32 23 7 5 2 4 5 3 6 3 7 4 3 4 3 2 2 3 3 1 3 15 10 12 15 14 11 11 7 5 3 4 6 10 13 15 18 21 23
14 7 7 30 19 7 4 4 3 2 3 3 3 5 5 4 3 2 2 2 1 2 3 3 2 3 0 11 16 16 12 9 7 4 1 3 7 11 15 19 21 23 24 26
7 26 24 10 4 5 5 1 2 3 2 2 3 5 6 5 4 4 2 2 2 2 1 3 3 3 9 15 14 11 9 7 3 2 6 9 13 16 19 23 26 26 26 27
17 6 5 3 4 7 5 3 3 2 4 6 6 3 4 4 3 4 2 4 3 2 2 3 4 4 14 14 12 10 6 4 5 9 13 18 21 24 25 27 28 28 28 28
6 5 5 3 3 2 2 2 2 3 8 14 13 6 3 3 4 1 4 1 3 3 1 4 3 12 13 15 11 8 7 8 13 18 22 25 28 30 30 29 28 28 29 29
6 6 4 3 2 4 4 6 9 11 14 11 9 6 4 3 4 2 4 4 1 5 4 3 4 7 13 13 11 10 12 16 22 26 30 31 31 30 31 29 28 28 30 29
6 7 5 6 7 5 9 10 8 8 9 6 4 3 4 2 4 4 4 5 5 3 2 4 2 2 5 9 13 17 22 26 30 32 31 30 31 31 31 31 30 28 25 24
5 5 11 10 13 7 5 6 6 4 1 1 4 4 4 1 3 2 3 4 3 2 2 5 8 12 16 20 24 27 29 30 30 28 29 30 29 28 28 30 26 21 20 20
Wind_Direction
270 249 237 236 232 230 226 209 221 182 186 183 178 193 195 219 213 222 178 37 245 237 188 270 258 238 200 150 156 178 214 200 240 232 233 195 177 193 166 142 260 236 188 272
269 264 235 227 217 220 212 205 189 189 183 204 195 247 242 213 198 191 201 229 220 193 228 232 219 250 167 137 144 174 37 247 335 317 5 341 200 192 201 220 148 241 178 262
251 263 249 220 213 214 212 201 177 169 206 204 170 162 226 233 210 228 200 249 115 169 215 242 277 250 202 188 184 165 69 282 207 232 178 109 230 224 208 218 229 257 236 259
249 251 251 221 212 201 210 218 219 197 201 208 206 176 204 184 207 226 202 182 220 188 235 213 222 233 274 211 191 179 170 235 233 261 266 272 277 268 247 237 243 237 262 242
251 249 249 232 217 203 213 207 190 182 196 186 196 199 192 239 241 174 236 232 211 219 218 204 211 217 251 226 197 169 179 256 233 273 244 249 265 263 255 249 248 247 258 259
246 244 242 241 216 209 223 219 211 209 200 171 181 199 204 222 231 240 246 241 244 228 237 241 255 246 207 222 227 198 203 211 193 256 209 257 277 248 239 244 250 244 246 256
251 245 238 239 224 217 218 220 233 215 232 192 199 207 195 212 213 223 222 236 229 211 242 254 267 249 237 218 212 218 214 207 200 248 90 253 250 270 267 225 252 242 262 178
246 248 240 234 230 226 223 225 226 230 230 217 209 201 196 205 222 230 242 249 252 217 224 206 239 270 313 235 230 222 213 195 252 234 201 296 298 218 202 184 245 213 151 129
248 247 241 231 228 230 240 227 229 223 204 219 223 207 203 211 210 258 218 231 213 204 168 191 207 211 209 217 238 306 202 226 242 183 249 248 253 281 326 326 262 158 137 132
249 247 240 233 224 224 232 249 244 235 206 249 244 211 217 200 187 187 149 179 207 197 186 206 201 224 195 195 187 172 187 202 221 232 244 264 111 344 329 179 274 100 113 103
255 251 245 235 235 238 231 253 243 240 228 252 241 230 204 168 189 188 160 130 187 164 226 207 193 202 226 178 183 176 175 181 200 198 233 257 164 156 193 155 117 119 110 105
259 253 253 250 243 250 243 251 250 233 236 242 248 251 245 229 226 216 186 236 160 175 205 224 182 208 229 164 235 176 201 188 186 188 213 140 157 148 148 158 160 159 148 134
255 253 251 251 246 247 242 245 238 225 217 226 242 230 230 239 234 229 190 214 194 188 198 195 183 211 139 178 231 208 174 168 196 114 183 177 163 166 176 179 171 165 166 168
253 250 246 247 243 237 237 233 235 227 211 218 233 235 224 220 219 216 223 218 186 192 189 185 177 204 196 216 232 194 196 146 177 236 143 166 199 200 178 165 169 173 189 206
250 246 242 245 243 241 241 235 237 235 217 136 136 193 204 207 204 206 219 205 190 175 162 187 207 177 145 311 27 240 194 187 176 211 184 181 189 214 199 200 199 203 217 235
245 246 238 241 240 238 236 221 227 230 225 218 133 166 166 161 179 179 167 175 163 164 166 185 194 181 176 206 235 251 213 217 219 183 166 179 151 161 178 188 195 219 241 256
241 241 236 234 233 223 206 216 223 208 195 160 150 167 132 164 152 152 160 163 157 142 158 208 169 201 189 240 219 210 194 192 196 192 183 162 179 173 201 220 242 252 253 264
219 219 220 206 183 185 163 130 149 163 176 142 131 104 134 156 127 116 142 144 161 181 190 186 190 159 198 247 240 245 201 175 166 181 187 156 165 197 236 261 263 267 271 278
166 160 171 157 134 117 121 126 131 106 132 108 97 141 148 163 113 122 126 146 138 178 194 229 172 193 220 223 213 176 166 173 167 167 167 169 200 233 257 272 279 282 283 284
135 132 123 93 110 125 119 68 70 51 50 65 94 112 121 144 132 129 121 174 183 177 231 172 192 251 243 232 195 186 180 175 169 165 153 193 260 288 296 298 295 293 291 290
117 71 77 118 89 81 79 96 83 82 49 67 101 132 126 149 133 125 142 172 145 96 256 142 260 252 271 160 160 162 164 167 168 165 170 316 309 311 310 306 303 300 298 294
123 124 121 124 116 80 81 4 358 59 147 100 104 101 107 116 121 109 173 122 60 213 172 77 266 257 175 162 161 160 163 160 163 292 316 319 317 315 309 307 305 302 299 295
103 85 83 44 12 53 100 162 307 107 157 149 143 106 114 115 109 93 95 87 191 109 60 232 226 184 177 181 179 174 181 224 287 310 319 320 317 314 310 306 303 300 297 295
57 53 44 75 358 54 90 142 133 115 146 137 125 102 109 110 70 98 93 240 81 49 353 242 254 207 194 187 193 214 241 277 303 314 316 313 311 308 304 301 301 300 297 298
61 43 50 54 122 53 100 100 105 108 129 130 111 82 93 25 80 58 87 35 270 199 226 239 324 197 194 202 223 252 277 296 305 307 307 306 303 301 301 301 300 298 299 296
56 51 66 117 76 65 95 107 104 108 125 107 90 94 59 10 124 67 204 125 219 248 223 82 111 188 236 257 268 280 291 297 300 299 299 300 300 301 300 299 298 301 296 291
54 40 48 82 95 90 78 107 90 109 73 110 100 72 204 105 46 322 192 201 214 176 289 287 292 294 291 289 289 290 294 294 293 295 299 299 299 299 298 297 302 299 293 292
Height
1505 1505 1506 1510 1513 1515 1517 1518 1518 1517 1519 1526 1521 1522 1520 1519 1518 1519 1517 1521 1518 1519 1517 1523 1520 1514 1509 1509 1515 1518 1516 1519 1525 1519 1507 1506 1509 1514 1517 1535 1526 1533 1530 1497
1499 1499 1503 1507 1509 1512 1515 1513 1515 1515 1516 1516 1519 1519 1516 1514 1517 1516 1519 1518 1517 1516 1518 1521 1516 1512 1510 1511 1514 1515 1516 1519 1533 1518 1511 1508 1507 1506 1509 1510 1516 1508 1537 1500
1491 1494 1498 1500 1504 1508 1513 1513 1514 1514 1510 1509 1511 1514 1515 1514 1513 1513 1512 1513 1514 1514 1514 1514 1511 1513 1509 1510 1512 1515 1514 1518 1519 1511 1506 1508 1509 1505 1504 1510 1512 1499 1494 1488
1486 1487 1492 1495 1497 1501 1508 1507 1503 1504 1507 1504 1505 1508 1509 1511 1512 1513 1511 1510 1511 1512 1515 1513 1510 1513 1511 1509 1509 1512 1515 1518 1516 1504 1503 1504 1499 1499 1500 1500 1497 1497 1482 1487
1480 1482 1486 1489 1493 1495 1495 1499 1501 1502 1500 1500 1503 1502 1501 1502 1506 1511 1512 1508 1506 1507 1508 1507 1505 1508 1509 1505 1506 1510 1511 1515 1508 1503 1501 1501 1496 1492 1489 1488 1484 1479 1481 1477
1475 1477 1479 1479 1486 1491 1489 1488 1489 1492 1493 1496 1500 1494 1494 1499 1500 1499 1502 1504 1505 1504 1504 1504 1502 1503 1504 1504 1505 1506 1508 1508 1511 1499 1496 1498 1495 1479 1475 1473 1474 1474 1476 1469
1470 1470 1472 1475 1478 1479 1483 1483 1484 1486 1488 1487 1487 1488 1490 1495 1497 1496 1497 1499 1500 1500 1500 1500 1500 1499 1499 1500 1501 1503 1501 1502 1503 1500 1501 1502 1468 1469 1467 1467 1467 1469 1469 1470
1462 1463 1464 1468 1471 1471 1474 1475 1480 1476 1479 1479 1480 1484 1486 1488 1490 1492 1493 1495 1496 1495 1497 1502 1498 1498 1497 1492 1492 1495 1498 1499 1497 1496 1498 1480 1470 1469 1469 1467 1469 1469 1470 1472
1453 1454 1455 1458 1461 1465 1466 1467 1470 1475 1474 1466 1473 1475 1478 1483 1486 1489 1488 1490 1492 1493 1494 1494 1491 1490 1488 1487 1489 1487 1496 1498 1496 1493 1488 1487 1471 1470 1470 1470 1476 1469 1470 1473
1441 1445 1446 1448 1452 1456 1458 1458 1462 1468 1463 1461 1470 1466 1468 1474 1480 1483 1483 1485 1488 1488 1487 1485 1484 1484 1475 1481 1486 1493 1492 1493 1489 1486 1483 1476 1471 1470 1472 1478 1473 1471 1471 1472
1434 1435 1436 1438 1442 1447 1450 1449 1456 1459 1458 1460 1461 1461 1461 1465 1471 1477 1478 1484 1482 1485 1483 1481 1478 1478 1474 1472 1473 1481 1481 1486 1487 1485 1481 1473 1469 1471 1474 1473 1473 1473 1474 1474
1426 1427 1429 1430 1434 1439 1443 1442 1445 1453 1454 1453 1453 1455 1457 1458 1460 1466 1469 1467 1465 1469 1477 1475 1472 1473 1476 1473 1476 1467 1472 1469 1475 1474 1469 1466 1467 1467 1469 1470 1471 1473 1474 1475
1414 1417 1422 1423 1426 1431 1434 1436 1438 1445 1446 1449 1448 1449 1451 1452 1454 1457 1458 1462 1462 1463 1466 1468 1468 1468 1471 1476 1473 1464 1462 1462 1466 1466 1466 1465 1465 1467 1467 1468 1470 1472 1473 1474
1404 1408 1411 1415 1419 1422 1427 1427 1432 1439 1439 1435 1440 1441 1443 1445 1447 1450 1452 1455 1455 1460 1462 1464 1465 1465 1464 1468 1464 1465 1461 1461 1463 1463 1463 1464 1465 1464 1465 1467 1469 1471 1472 1473
1393 1398 1404 1408 1410 1415 1418 1421 1423 1428 1436 1433 1437 1439 1440 1443 1442 1444 1451 1449 1451 1456 1460 1461 1461 1461 1464 1464 1463 1462 1456 1456 1458 1457 1456 1458 1460 1462 1463 1465 1467 1469 1470 1471
1383 1388 1394 1399 1404 1408 1412 1414 1412 1417 1425 1433 1436 1442 1439 1438 1440 1444 1448 1449 1450 1453 1455 1457 1457 1457 1460 1462 1462 1450 1450 1450 1451 1452 1453 1456 1457 1459 1462 1464 1466 1466 1468 1468
1371 1378 1385 1392 1398 1399 1401 1402 1400 1406 1414 1421 1437 1435 1434 1441 1441 1444 1447 1448 1448 1451 1454 1455 1456 1456 1457 1456 1455 1447 1448 1448 1449 1451 1453 1456 1457 1458 1460 1462 1463 1463 1464 1465
1358 1369 1378 1383 1385 1389 1395 1401 1395 1404 1411 1416 1420 1432 1437 1439 1439 1444 1446 1448 1450 1451 1452 1454 1454 1455 1455 1455 1446 1444 1445 1447 1448 1450 1452 1453 1456 1457 1459 1459 1460 1460 1460 1460
1355 1363 1369 1378 1384 1391 1395 1396 1396 1401 1408 1410 1417 1425 1432 1435 1439 1443 1446 1448 1450 1451 1451 1451 1452 1451 1451 1441 1441 1442 1443 1445 1447 1449 1451 1453 1454 1455 1456 1456 1456 1456 1455 1455
1355 1361 1369 1383 1388 1391 1396 1401 1404 1411 1409 1412 1418 1423 1429 1435 1438 1442 1447 1447 1448 1455 1449 1448 1449 1443 1437 1436 1437 1440 1442 1444 1446 1448 1450 1452 1453 1453 1452 1452 1451 1450 1449 1447
1361 1367 1378 1388 1390 1394 1399 1405 1407 1410 1414 1416 1420 1423 1426 1433 1437 1440 1442 1445 1447 1461 1451 1450 1449 1438 1434 1435 1437 1439 1441 1444 1446 1447 1449 1450 1450 1449 1448 1446 1445 1443 1441 1439
1363 1370 1383 1389 1393 1396 1401 1414 1411 1411 1417 1419 1420 1423 1426 1432 1435 1438 1442 1444 1448 1458 1447 1455 1450 1436 1435 1436 1438 1440 1442 1443 1445 1446 1446 1446 1445 1444 1442 1439 1437 1435 1432 1430
1373 1377 1384 1389 1397 1406 1415 1424 1422 1418 1416 1418 1420 1426 1428 1432 1434 1437 1440 1450 1452 1446 1459 1450 1440 1433 1435 1437 1438 1440 1441 1442 1442 1442 1441 1440 1438 1437 1434 1431 1428 1426 1422 1420
1378 1384 1398 1404 1411 1412 1411 1412 1412 1414 1415 1417 1420 1424 1427 1431 1434 1438 1447 1446 1447 1465 1467 1453 1436 1432 1433 1436 1437 1438 1439 1439 1438 1437 1435 1433 1431 1428 1426 1423 1420 1416 1413 1411
1385 1391 1411 1414 1413 1412 1412 1412 1413 1415 1418 1419 1422 1425 1428 1434 1440 1442 1446 1457 1466 1457 1450 1438 1432 1432 1434 1435 1436 1436 1435 1434 1432 1431 1428 1425 1423 1419 1415 1413 1410 1407 1404 1401
1396 1404 1412 1413 1413 1415 1415 1416 1417 1418 1420 1421 1423 1429 1438 1441 1441 1448 1453 1459 1458 1441 1436 1434 1434 1434 1435 1434 1434 1432 1430 1428 1426 1423 1420 1417 1413 1410 1406 1403 1400 1398 1395 1392
1407 1413 1413 1413 1415 1417 1418 1419 1420 1421 1422 1426 1426 1438 1441 1438 1448 1448 1441 1444 1436 1433 1433 1433 1433 1433 1432 1430 1428 1426 1423 1420 1417 1414 1411 1407 1404 1401 1397 1393 1391 1389 1387 1384